Date String (YYYY-MM-DD hh:mm:ss) UTC,Instrument flags,Ambient pressure (hPa),Sample flow (lpm),Bypass flow (lpm),Sample temperature (°C),Ambient temperature (°C),ASC tube jacket temperature (°C),LED temperature (°C),Box temperature (°C),Sample RH (%),Span deviation,Mass concentration (μg/m³),Mass concentration (μg/m³),Mass concentration (μg/m³)
DateTimeUTC,F1_M11,P_M11,Q1_M11,Q2_M11,T1_M11,T2_M11,T3_M11,T4_M11,T5_M11,U1_M11,ZSPAN_M11,X0_M11,X2_M11,X1_M11
2022-12-26 21:00:00,,0827.0,4.97,0.00,24.5,23.3,00.0,33.3,26.4,15.6,0000.0,0007.26,0005.04,0004.76
2022-12-26 21:01:00,,0826.9,4.98,0.00,24.5,23.3,00.0,33.3,26.4,15.7,0000.0,0006.94,0005.02,0004.78
2022-12-26 21:02:00,,0827.0,5.01,0.00,24.5,23.3,00.0,33.3,26.4,15.9,0000.0,0007.45,0005.01,0004.78
2022-12-26 21:03:00,,0827.2,5.02,0.00,24.5,23.3,00.0,33.3,26.4,16.0,0000.0,0007.52,0005.04,0004.79
2022-12-26 21:04:00,,0826.9,5.00,0.00,24.5,23.3,00.0,33.3,26.4,15.6,0000.0,0007.75,0005.03,0004.81
2022-12-26 21:05:00,,0827.0,4.98,0.00,24.5,23.3,00.0,33.3,26.4,15.5,0000.0,0007.77,0005.05,0004.82
2022-12-26 21:06:00,,0827.0,4.97,0.00,24.5,23.3,00.0,33.3,26.4,15.6,0000.0,0007.83,0005.07,0004.84
2022-12-26 21:07:00,,0827.1,4.98,0.00,24.5,23.4,00.0,33.3,26.4,15.6,0000.0,0007.81,0005.07,0004.85
2022-12-26 21:08:00,,0827.0,5.03,0.00,24.6,23.4,00.0,33.4,26.3,15.6,0000.0,0007.78,0005.07,0004.87
2022-12-26 21:09:00,,0827.0,5.01,0.00,24.6,23.4,00.0,33.4,26.4,15.6,0000.0,0007.73,0005.07,0004.88
2022-12-26 21:10:00,,0827.0,4.98,0.00,24.6,23.4,00.0,33.4,26.4,16.1,0000.0,0007.74,0005.09,0004.90
2022-12-26 21:11:00,,0826.9,4.98,0.00,24.6,23.4,00.0,33.4,26.4,17.0,0000.0,0007.75,0005.15,0004.97
2022-12-26 21:12:00,,0827.0,4.98,0.00,24.6,23.4,00.0,33.4,26.4,17.2,0000.0,0008.46,0005.26,0005.06
2022-12-26 21:13:00,,0826.9,5.03,0.00,24.6,23.4,00.0,33.4,26.4,17.1,0000.0,0008.16,0005.34,0005.14
2022-12-26 21:14:00,,0826.9,5.03,0.00,24.6,23.4,00.0,33.4,26.5,17.2,0000.0,0008.23,0005.43,0005.22
2022-12-26 21:15:00,,0826.9,4.99,0.00,24.6,23.5,00.0,33.4,26.5,17.3,0000.0,0008.28,0005.52,0005.30
2022-12-26 21:16:00,,0826.9,4.98,0.00,24.7,23.5,00.0,33.4,26.5,17.3,0000.0,0008.33,0005.61,0005.38
2022-12-26 21:17:00,,0826.8,4.98,0.00,24.7,23.5,00.0,33.4,26.5,17.4,0000.0,0008.40,0005.69,0005.44
2022-12-26 21:18:00,,0826.8,4.98,0.00,24.7,23.5,00.0,33.4,26.5,17.3,0000.0,0008.57,0005.78,0005.52
2022-12-26 21:19:00,,0826.9,5.05,0.00,24.7,23.5,00.0,33.4,26.5,17.2,0000.0,0009.04,0005.88,0005.61
2022-12-26 21:20:00,,0826.9,5.02,0.00,24.7,23.5,00.0,33.5,26.5,16.7,0000.0,0009.12,0005.96,0005.67
2022-12-26 21:21:00,,0826.9,5.00,0.00,24.7,23.5,00.0,33.5,26.5,16.6,0000.0,0009.14,0005.99,0005.69
2022-12-26 21:22:00,,0826.9,4.97,0.00,24.7,23.5,00.0,33.5,26.5,16.8,0000.0,0009.11,0005.96,0005.67
2022-12-26 21:23:00,,0827.0,4.98,0.00,24.7,23.5,00.0,33.5,26.5,16.7,0000.0,0008.45,0005.90,0005.62
2022-12-26 21:24:00,,0827.2,5.02,0.00,24.7,23.5,00.0,33.5,26.5,15.8,0000.0,0008.42,0005.86,0005.56
2022-12-26 21:25:00,,0827.2,5.03,0.00,24.7,23.5,00.0,33.5,26.5,16.1,0000.0,0008.36,0005.79,0005.48
2022-12-26 21:26:00,,0827.1,5.01,0.00,24.7,23.5,00.0,33.5,26.6,15.6,0000.0,0008.12,0005.70,0005.40
2022-12-26 21:27:00,,0827.0,4.98,0.00,24.7,23.4,00.0,33.5,26.6,15.6,0000.0,0008.01,0005.63,0005.32
2022-12-26 21:28:00,,0826.9,4.97,0.00,24.7,23.3,00.0,33.5,26.5,15.9,0000.0,0008.04,0005.56,0005.25
2022-12-26 21:29:00,,0826.9,5.02,0.00,24.7,23.3,00.0,33.5,26.5,15.9,0000.0,0008.05,0005.50,0005.18
2022-12-26 21:30:00,,0826.9,5.03,0.00,24.7,23.2,00.0,33.5,26.5,15.9,0000.0,0007.66,0005.45,0005.08
2022-12-26 21:31:00,,0827.2,5.01,0.00,24.6,23.0,00.0,33.5,26.4,15.6,0000.0,0007.53,0005.34,0004.99
2022-12-26 21:32:00,,0827.0,4.99,0.00,24.6,22.9,00.0,33.5,26.3,15.4,0000.0,0007.49,0005.27,0004.93
2022-12-26 21:33:00,,0827.0,4.97,0.00,24.5,22.9,00.0,33.5,26.3,15.2,0000.0,0007.48,0005.22,0004.86
2022-12-26 21:34:00,,0827.2,4.98,0.00,24.5,22.8,00.0,33.5,26.2,15.5,0000.0,0007.45,0005.18,0004.82
2022-12-26 21:35:00,,0826.9,5.00,0.00,24.5,22.7,00.0,33.5,26.2,15.7,0000.0,0007.39,0005.12,0004.78
2022-12-26 21:36:00,,0827.1,5.02,0.00,24.4,22.7,00.0,33.4,26.1,15.9,0000.0,0007.55,0005.09,0004.75
2022-12-26 21:37:00,,0827.0,4.98,0.00,24.4,22.6,00.0,33.4,26.1,15.8,0000.0,0007.44,0005.05,0004.72
2022-12-26 21:38:00,,0827.0,5.00,0.00,24.4,22.6,00.0,33.4,26.0,15.8,0000.0,0007.37,0005.00,0004.70
2022-12-26 21:39:00,,0826.8,4.98,0.00,24.3,22.6,00.0,33.4,26.1,15.9,0000.0,0007.15,0004.95,0004.66
2022-12-26 21:40:00,,0826.8,4.98,0.00,24.3,22.6,00.0,33.3,26.0,15.9,0000.0,0007.04,0004.91,0004.64
2022-12-26 21:41:00,,0826.8,4.99,0.00,24.3,22.6,00.0,33.3,26.0,15.8,0000.0,0006.88,0004.84,0004.61
2022-12-26 21:42:00,,0826.8,5.03,0.00,24.3,22.7,00.0,33.3,26.0,15.8,0000.0,0006.98,0004.84,0004.59
2022-12-26 21:43:00,,0826.9,5.02,0.00,24.3,22.8,00.0,33.3,26.1,16.0,0000.0,0008.10,0004.83,0004.58
2022-12-26 21:44:00,,0826.8,4.98,0.00,24.3,22.8,00.0,33.3,26.1,15.9,0000.0,0008.97,0004.81,0004.57
2022-12-26 21:45:00,,0826.8,4.99,0.00,24.3,22.9,00.0,33.3,26.1,16.0,0000.0,0009.01,0004.81,0004.57
2022-12-26 21:46:00,,0826.7,4.98,0.00,24.3,22.9,00.0,33.3,26.1,15.8,0000.0,0009.01,0004.82,0004.56
2022-12-26 21:47:00,,0826.7,5.00,0.00,24.3,23.0,00.0,33.3,26.1,15.8,0000.0,0008.91,0004.81,0004.55
2022-12-26 21:48:00,,0826.7,5.02,0.00,24.3,23.1,00.0,33.3,26.1,15.7,0000.0,0009.18,0004.81,0004.55
2022-12-26 21:49:00,,0826.7,5.02,0.00,24.4,23.1,00.0,33.3,26.2,15.7,0000.0,0009.26,0004.82,0004.55
2022-12-26 21:50:00,,0826.7,4.98,0.00,24.4,23.2,00.0,33.3,26.3,16.2,0000.0,0009.31,0004.84,0004.54
2022-12-26 21:51:00,,0826.6,4.97,0.00,24.4,23.2,00.0,33.3,26.3,16.2,0000.0,0009.32,0004.83,0004.53
2022-12-26 21:52:00,,0826.6,5.00,0.00,24.4,23.3,00.0,33.3,26.3,16.2,0000.0,0009.32,0004.83,0004.54
2022-12-26 21:53:00,,0826.7,5.03,0.00,24.5,23.3,00.0,33.3,26.3,16.1,0000.0,0009.39,0004.85,0004.56
2022-12-26 21:54:00,,0826.7,5.02,0.00,24.5,23.3,00.0,33.3,26.3,16.0,0000.0,0008.47,0004.87,0004.57
2022-12-26 21:55:00,,0826.7,4.99,0.00,24.5,23.3,00.0,33.3,26.4,15.9,0000.0,0007.56,0004.86,0004.57
2022-12-26 21:56:00,,0826.7,4.96,0.00,24.5,23.4,00.0,33.3,26.4,15.8,0000.0,0007.52,0004.85,0004.56
2022-12-26 21:57:00,,0826.7,4.99,0.00,24.5,23.4,00.0,33.3,26.4,15.8,0000.0,0007.54,0004.85,0004.56
2022-12-26 21:58:00,,0826.7,5.03,0.00,24.6,23.4,00.0,33.3,26.4,15.8,0000.0,0007.57,0004.85,0004.56
2022-12-26 21:59:00,,0826.7,5.02,0.00,24.6,23.4,00.0,33.3,26.4,16.0,0000.0,0007.25,0004.86,0004.58
